KUIPER-00268

导读 | 豆包AI

KUIPER-00268是亚马逊柯伊伯项目(Project Kuiper)星座的一颗低轨卫星,于2026年2月12日由法国发射。柯伊伯项目旨在打造近地轨道卫星宽带网络,为全球未覆盖及覆盖不足社区提供平价高速网络,与SpaceX星链形成竞争,最终将由超过3200颗卫星组成。该卫星入轨后将逐步推进星座组网部署。

Basic Information
目录编号:
67790
目录名称:
KUIPER-00268
国际标识:
2026-030AC
轨道中心:
EARTH
卫星名称:
KUIPER-00268
卫星全名:
KUIPER-00268
卫星状态:
在轨 (已飞行102 天)
发射日期:
2026-02-12 UTC
国别 :
美国 (US)
星等 :
--
Orbit Information
数据来源 国际轨道数据
星历时间: 2026-05-24T12:00:02+0800
1天前
查看轨道信息
半长轴: 6952.479km
偏心率: 0.0004124
轨道倾角: 51.896°
近地点辐角 349.995°
升交点赤经 217.372°
平近点角 257.041°
近地点: 571.474km
远地点: 577.21km
周期: 96.154分钟
每日圈数: 14.975913
Detailed Information
使用方式:
暂无
2D Orbit Map
3D Orbit Map
Orbit Altitude Analysis Chart
Orbit Inclination Analysis Chart
Orbit Comprehensive Analysis Chart
View Comprehensive Chart